COSMOS 1275 DEB, 42197

Orbit data source: Space-Track

COSMOS 1275 DEB, 42197 is space debris in LEO originally from a launch on Thu, 04 Jun 1981 UTC launched from the Plesetsk Missile And Space Complex (PKMTR). Debris objects in space refer to the collection of defunct objects orbiting the Earth. Examples of debris include non-operational satellites, rocket bodies, and fragments generated from explosions, collisions, or faulty payload assembly.

Loading next visibility...
Identifier
42197, 1981-053TM
Orbit
LEO
Country
Flag of CISCIS
Related business
Manufacturer
Unknown
Mission
Spacecraft
Bus & Motor
Unknown
Mass
Unknown
Launch date (UTC)
1981-06-04 (44 years ago)
Launch vehicle
Unknown
Launch site
Plesetsk Missile And Space Complex (PKMTR)
Object type
Payload
Rocket body
Debris
Shape & HBR
Unknown shape, 0.1 m
Radar Cross Section
Small (<0.1 m²)

Expand to show TLE details & history
Last TLE update: 1 day ago

TLE from 1 day ago
0 COSMOS 1275 DEB
1 42197U 81053TM  25309.41245624  .00001039  00000-0  10980-2 0  9990
2 42197  82.8495 185.5611 0113015 148.7487 212.0452 13.70873642596601
Epoch: 2025-11-05T09:53Z
TLE epoch observation values (Epoch: 2025-11-05T09:53:56.219Z)
Latitude
0.00003°
Longitude
-7.80864°
Altitude
1,070.248 km
Speed
7.282 km/s
True Right ascension
12h 22m 14s
True Declination
0° 00' 00"
Sunlit
Object was in daylight at epoch
Visualization orbit readout
Latitude
Unknown
Longitude
Unknown
Altitude
Unknown
Speed
Unknown
Apparent Right ascension
Unknown
Apparent Declination
Unknown
Sunlit
N/A
Visualization observer readout
Local Sidereal Time
15:39:33
Azimuth
Unknown
Elevation
Unknown
Doppler factor
Unknown
Orbital elements
Apogee altitude
1,076.905 km
Perigee altitude
910.282 km
Semi-major axis
7,371.731 km
Eccentricity
0.0113
Inclination
82.8495°
RAAN
185.5611°
Arg. of periapsis
148.7487°
True anomaly
211.36621°
Mean anomaly
212.0452°
Eccentric anomaly
211.7049°
Mean motion
3.42917 °/min
Orbital period
104.98 mins
BSTAR
0.001098
Loading maneuver chart data...
Computing Atmospheric mass density...
Loading historical data...
Loading historical data...
Loading historical data...
Loading historical data...
Loading historical data...
Loading historical data...
Loading historical data...

Documentation

Showing up to 5 results
|